,,PA_Meas_PMT16A,,PR_Meas_QMR101_102,,RH_Meas_QMH101,,SR_Meas_QMS101,,TA_Meas_QMH101,,GenWind,,GenWind,
time,status,PA,status,PR,status,RH,status,SR,status,TA,status,DirAvg,status,SpdAvg,
2015-05-21, 00:00:04,VALID,919.622,VALID,0,VALID,98.8833,VALID,0,VALID,20.3854,VALID,121,VALID,0,
2015-05-21, 00:01:04,VALID,919.625,VALID,0,VALID,98.8986,VALID,0,VALID,20.3448,VALID,124,VALID,0,
2015-05-21, 00:02:04,VALID,919.602,VALID,0,VALID,98.8681,VALID,0,VALID,20.3659,VALID,132,VALID,0,
2015-05-21, 00:03:04,VALID,919.553,VALID,0,VALID,98.8833,VALID,0,VALID,20.3659,VALID,140,VALID,0,
2015-05-21, 00:04:04,VALID,919.533,VALID,0,VALID,98.9138,VALID,0,VALID,20.3659,VALID,139,VALID,0,
2015-05-21, 00:05:04,VALID,919.531,VALID,0,VALID,98.891,VALID,0,VALID,20.3659,VALID,139,VALID,0,
2015-05-21, 00:06:04,VALID,919.504,VALID,0,VALID,98.8833,VALID,0,VALID,20.3643,VALID,139,VALID,0,
2015-05-21, 00:07:04,VALID,919.475,VALID,0,VALID,98.8833,VALID,0,VALID,20.3269,VALID,146,VALID,0,
2015-05-21, 00:08:04,VALID,919.473,VALID,0,VALID,98.9214,VALID,0,VALID,20.2879,VALID,147,VALID,0,
2015-05-21, 00:09:04,VALID,919.495,VALID,0,VALID,98.9214,VALID,0,VALID,20.3089,VALID,155,VALID,0.975391,
2015-05-21, 00:10:04,VALID,919.499,VALID,0,VALID,98.9138,VALID,0,VALID,20.2684,VALID,152,VALID,0.821875,
2015-05-21, 00:11:04,VALID,919.502,VALID,0,VALID,98.9062,VALID,0,VALID,20.2684,VALID,154,VALID,0.814453,
2015-05-21, 00:12:04,VALID,919.511,VALID,0,VALID,98.9062,VALID,0,VALID,20.2489,VALID,143,VALID,0.761719,
2015-05-21, 00:13:04,VALID,919.484,VALID,0,VALID,98.9062,VALID,0.107441,VALID,20.2083,VALID,149,VALID,0.927734,
2015-05-21, 00:14:04,VALID,919.496,VALID,0,VALID,98.9138,VALID,0.107441,VALID,20.2083,VALID,146,VALID,0.941016,
2015-05-21, 00:15:04,VALID,919.485,VALID,0,VALID,98.9062,VALID,0.107441,VALID,20.2278,VALID,146,VALID,1.0293,
2015-05-21, 00:16:04,VALID,919.467,VALID,0,VALID,98.891,VALID,0.107441,VALID,20.2278,VALID,146,VALID,0.960547,
2015-05-21, 00:17:04,VALID,919.426,VALID,0,VALID,98.8833,VALID,0,VALID,20.2473,VALID,132,VALID,0.674609,
2015-05-21, 00:18:04,VALID,919.412,VALID,0,VALID,98.8833,VALID,0.107441,VALID,20.2668,VALID,135,VALID,0.836719,
2015-05-21, 00:19:04,VALID,919.374,VALID,0,VALID,98.8528,VALID,0,VALID,20.3074,VALID,132,VALID,1.02578,
2015-05-21, 00:20:04,VALID,919.344,VALID,0,VALID,98.8528,VALID,0.107441,VALID,20.3253,VALID,134,VALID,0.0832031,
2015-05-21, 00:21:04,VALID,919.315,VALID,0,VALID,98.8452,VALID,0.107441,VALID,20.3659,VALID,129,VALID,0.698828,
2015-05-21, 00:22:04,VALID,919.305,VALID,0,VALID,98.8452,VALID,0,VALID,20.3448,VALID,129,VALID,0,
2015-05-21, 00:23:04,VALID,919.292,VALID,0,VALID,98.8452,VALID,0,VALID,20.3448,VALID,129,VALID,0,
2015-05-21, 00:24:04,VALID,919.263,VALID,0,VALID,98.8528,VALID,0.107441,VALID,20.3854,VALID,130,VALID,0,
2015-05-21, 00:25:04,VALID,919.262,VALID,0,VALID,98.83,VALID,0.107441,VALID,20.3643,VALID,130,VALID,0,
2015-05-21, 00:26:04,VALID,919.287,VALID,0,VALID,98.8681,VALID,0,VALID,20.3643,VALID,129,VALID,0,
2015-05-21, 00:27:04,VALID,919.314,VALID,0,VALID,98.8605,VALID,0,VALID,20.3659,VALID,129,VALID,0,
2015-05-21, 00:28:04,VALID,919.267,VALID,0,VALID,98.8757,VALID,0,VALID,20.3643,VALID,129,VALID,0,
2015-05-21, 00:29:04,VALID,919.284,VALID,0,VALID,98.8681,VALID,0,VALID,20.3854,VALID,129,VALID,0,
2015-05-21, 00:30:04,VALID,919.281,VALID,0,VALID,98.8757,VALID,0.107441,VALID,20.3643,VALID,129,VALID,0,
2015-05-21, 00:31:04,VALID,919.287,VALID,0,VALID,98.8833,VALID,0,VALID,20.3643,VALID,129,VALID,0,
2015-05-21, 00:32:04,VALID,919.25,VALID,0,VALID,98.8986,VALID,0,VALID,20.3448,VALID,129,VALID,0,
2015-05-21, 00:33:04,VALID,919.271,VALID,0,VALID,98.8986,VALID,0.107441,VALID,20.3448,VALID,129,VALID,0,
2015-05-21, 00:34:04,VALID,919.271,VALID,0,VALID,98.8833,VALID,0,VALID,20.3253,VALID,129,VALID,0,
2015-05-21, 00:35:04,VALID,919.303,VALID,0,VALID,98.9062,VALID,0.107441,VALID,20.3058,VALID,129,VALID,0,
2015-05-21, 00:36:04,VALID,919.283,VALID,0,VALID,98.9214,VALID,0.107441,VALID,20.2863,VALID,129,VALID,0,
2015-05-21, 00:37:04,VALID,919.291,VALID,0,VALID,98.9291,VALID,0,VALID,20.2473,VALID,129,VALID,0,
2015-05-21, 00:38:04,VALID,919.298,VALID,0,VALID,98.9138,VALID,0,VALID,20.2879,VALID,129,VALID,0,
2015-05-21, 00:39:04,VALID,919.31,VALID,0,VALID,98.9138,VALID,0.107441,VALID,20.3074,VALID,129,VALID,0,
2015-05-21, 00:40:04,VALID,919.301,VALID,0,VALID,98.9138,VALID,0.107441,VALID,20.2863,VALID,129,VALID,0,
2015-05-21, 00:41:04,VALID,919.283,VALID,0,VALID,98.9138,VALID,0.107441,VALID,20.2879,VALID,129,VALID,0,
2015-05-21, 00:42:04,VALID,919.294,VALID,0,VALID,98.9138,VALID,0,VALID,20.2879,VALID,129,VALID,0,
2015-05-21, 00:43:04,VALID,919.289,VALID,0,VALID,98.9214,VALID,0.107441,VALID,20.2473,VALID,129,VALID,0,
2015-05-21, 00:44:04,VALID,919.241,VALID,0,VALID,98.9291,VALID,0.107441,VALID,20.2278,VALID,128,VALID,0,
2015-05-21, 00:45:04,VALID,919.231,VALID,0,VALID,98.9062,VALID,0.107441,VALID,20.2278,VALID,129,VALID,0,
2015-05-21, 00:46:04,VALID,919.229,VALID,0,VALID,98.9138,VALID,0.107441,VALID,20.2489,VALID,128,VALID,0,
2015-05-21, 00:47:04,VALID,919.209,VALID,0,VALID,98.9138,VALID,0,VALID,20.2489,VALID,128,VALID,0,
2015-05-21, 00:48:04,VALID,919.188,VALID,0,VALID,98.9367,VALID,0,VALID,20.1888,VALID,128,VALID,0,
2015-05-21, 00:49:04,VALID,919.193,VALID,0,VALID,98.9291,VALID,0,VALID,20.2098,VALID,118,VALID,0,
2015-05-21, 00:50:04,VALID,919.175,VALID,0,VALID,98.9443,VALID,0,VALID,20.1498,VALID,118,VALID,0,
2015-05-21, 00:51:04,VALID,919.193,VALID,0,VALID,98.9214,VALID,0.107441,VALID,20.1513,VALID,118,VALID,0,
2015-05-21, 00:52:04,VALID,919.212,VALID,0,VALID,98.9291,VALID,0.107441,VALID,20.1303,VALID,118,VALID,0,
2015-05-21, 00:53:04,VALID,919.2,VALID,0,VALID,98.9291,VALID,0,VALID,20.1708,VALID,118,VALID,0,
2015-05-21, 00:54:04,VALID,919.227,VALID,0,VALID,98.9138,VALID,0,VALID,20.1693,VALID,119,VALID,0,
2015-05-21, 00:55:04,VALID,919.216,VALID,0,VALID,98.9062,VALID,0.107441,VALID,20.1903,VALID,118,VALID,0,
2015-05-21, 00:56:04,VALID,919.239,VALID,0,VALID,98.8681,VALID,0.107441,VALID,20.2489,VALID,118,VALID,0,
2015-05-21, 00:57:04,VALID,919.216,VALID,0,VALID,98.8757,VALID,0.107441,VALID,20.2684,VALID,118,VALID,0,
2015-05-21, 00:58:04,VALID,919.222,VALID,0,VALID,98.8681,VALID,0.107441,VALID,20.2668,VALID,118,VALID,0,
2015-05-21, 00:59:04,VALID,919.214,VALID,0,VALID,98.8833,VALID,0.107441,VALID,20.2473,VALID,118,VALID,0,
2015-05-21, 01:00:04,VALID,919.237,VALID,0,VALID,98.8833,VALID,0.107441,VALID,20.2879,VALID,119,VALID,0,
2015-05-21, 01:01:04,VALID,919.192,VALID,0,VALID,98.8833,VALID,0.107441,VALID,20.2473,VALID,120,VALID,0,
2015-05-21, 01:02:04,VALID,919.213,VALID,0,VALID,98.891,VALID,0,VALID,20.2863,VALID,120,VALID,0,
2015-05-21, 01:03:04,VALID,919.24,VALID,0,VALID,98.891,VALID,0,VALID,20.3058,VALID,120,VALID,0,
2015-05-21, 01:04:04,VALID,919.209,VALID,0,VALID,98.8605,VALID,0,VALID,20.3659,VALID,120,VALID,0,
2015-05-21, 01:05:04,VALID,919.19,VALID,0,VALID,98.8605,VALID,0,VALID,20.3659,VALID,120,VALID,0,
2015-05-21, 01:06:04,VALID,919.189,VALID,0,VALID,98.8605,VALID,0,VALID,20.3643,VALID,120,VALID,0,
2015-05-21, 01:07:04,VALID,919.195,VALID,0,VALID,98.8757,VALID,0,VALID,20.3643,VALID,120,VALID,0,
2015-05-21, 01:08:04,VALID,919.198,VALID,0,VALID,98.8681,VALID,0.107441,VALID,20.3854,VALID,120,VALID,0,
2015-05-21, 01:09:04,VALID,919.17,VALID,0,VALID,98.8681,VALID,0.107441,VALID,20.4033,VALID,120,VALID,0,
2015-05-21, 01:10:04,VALID,919.167,VALID,0,VALID,98.8833,VALID,0.107441,VALID,20.4049,VALID,120,VALID,0,
2015-05-21, 01:11:04,VALID,919.175,VALID,0,VALID,98.8757,VALID,0.107441,VALID,20.3838,VALID,120,VALID,0,
2015-05-21, 06:58:04,VALID,918.678,VALID,0,VALID,98.8757,VALID,77.8948,VALID,20.0538,VALID,113,VALID,1.12891,
2015-05-21, 06:59:04,VALID,918.701,VALID,0,VALID,98.8757,VALID,80.6883,VALID,20.1123,VALID,87,VALID,0.761719,
2015-05-21, 07:00:04,VALID,918.708,VALID,0,VALID,98.8605,VALID,83.5892,VALID,20.1513,VALID,100,VALID,0.773047,
2015-05-21, 07:01:04,VALID,918.738,VALID,0,VALID,98.8605,VALID,85.9529,VALID,20.2098,VALID,93,VALID,0.628906,
2015-05-21, 07:02:04,VALID,918.772,VALID,0,VALID,98.8605,VALID,88.2092,VALID,20.2879,VALID,114,VALID,0.848047,
2015-05-21, 07:03:04,VALID,918.816,VALID,0,VALID,98.8452,VALID,92.0771,VALID,20.3659,VALID,114,VALID,0.439453,
2015-05-21, 07:04:04,VALID,918.869,VALID,0,VALID,98.83,VALID,96.1598,VALID,20.4454,VALID,107,VALID,0,
2015-05-21, 07:05:04,VALID,918.912,VALID,0,VALID,98.83,VALID,101.854,VALID,20.4829,VALID,117,VALID,0,
2015-05-21, 07:06:04,VALID,918.939,VALID,0,VALID,98.7995,VALID,109.59,VALID,20.5804,VALID,117,VALID,0,
2015-05-21, 07:07:04,VALID,918.994,VALID,0,VALID,98.7842,VALID,117.003,VALID,20.639,VALID,117,VALID,0,
2015-05-21, 07:08:04,VALID,919.048,VALID,0,VALID,98.7614,VALID,122.805,VALID,20.756,VALID,117,VALID,0,
2015-05-21, 07:09:04,VALID,919.056,VALID,0,VALID,98.7004,VALID,126.566,VALID,20.912,VALID,117,VALID,0,
2015-05-21, 07:10:04,VALID,919.085,VALID,0,VALID,98.6927,VALID,127.748,VALID,20.9901,VALID,117,VALID,0,
2015-05-21, 07:11:04,VALID,919.082,VALID,0,VALID,98.6622,VALID,128.607,VALID,21.1071,VALID,117,VALID,0,
2015-05-21, 07:12:04,VALID,919.099,VALID,0,VALID,98.6165,VALID,125.384,VALID,21.2421,VALID,117,VALID,0,
2015-05-21, 07:13:04,VALID,919.077,VALID,0,VALID,98.6165,VALID,124.417,VALID,21.3006,VALID,117,VALID,0,
2015-05-21, 07:14:04,VALID,919.067,VALID,0,VALID,98.6546,VALID,124.739,VALID,21.2031,VALID,117,VALID,0,
2015-05-21, 07:15:04,VALID,919.028,VALID,0,VALID,98.7232,VALID,123.987,VALID,21.164,VALID,117,VALID,0,
2015-05-21, 07:16:04,VALID,919.046,VALID,0,VALID,98.8071,VALID,126.888,VALID,21.1266,VALID,107,VALID,0,
2015-05-21, 07:17:04,VALID,919.045,VALID,0,VALID,98.891,VALID,128.285,VALID,21.0681,VALID,107,VALID,0,
2015-05-21, 07:18:04,VALID,919.041,VALID,0,VALID,98.9519,VALID,129.681,VALID,21.0681,VALID,93,VALID,0,
2015-05-21, 07:19:04,VALID,919.033,VALID,0,VALID,98.9672,VALID,131.508,VALID,21.0665,VALID,98,VALID,0,
2015-05-21, 07:20:04,VALID,919.052,VALID,0,VALID,98.9824,VALID,132.045,VALID,21.1071,VALID,110,VALID,0,
2015-05-21, 07:21:04,VALID,919.064,VALID,0,VALID,98.9748,VALID,131.401,VALID,21.1266,VALID,110,VALID,1.58789,
2015-05-21, 07:22:04,VALID,919.08,VALID,0,VALID,99.0358,VALID,134.946,VALID,21.1266,VALID,93,VALID,1.54062,
2015-05-21, 07:23:04,VALID,919.098,VALID,0,VALID,98.9977,VALID,141.07,VALID,21.2047,VALID,139,VALID,1.1375,
2015-05-21, 07:24:04,VALID,919.145,VALID,0,VALID,99.0282,VALID,145.583,VALID,21.2047,VALID,119,VALID,1.02891,
2015-05-21, 07:25:04,VALID,919.16,VALID,0,VALID,99.0282,VALID,147.087,VALID,21.2421,VALID,132,VALID,1.02266,
2015-05-21, 07:26:04,VALID,919.163,VALID,0,VALID,99.0815,VALID,149.558,VALID,21.2242,VALID,124,VALID,1.84961,
2015-05-21, 07:27:04,VALID,919.153,VALID,0,VALID,99.0892,VALID,149.773,VALID,21.2242,VALID,119,VALID,1.42617,
2015-05-21, 07:28:04,VALID,919.178,VALID,0,VALID,99.0815,VALID,151.385,VALID,21.2421,VALID,119,VALID,1.9332,
2015-05-21, 07:29:04,VALID,919.172,VALID,0,VALID,99.1273,VALID,153.963,VALID,21.2031,VALID,124,VALID,1.77734,
2015-05-21, 07:30:04,VALID,919.17,VALID,0,VALID,99.0968,VALID,157.401,VALID,21.2242,VALID,133,VALID,0.996094,
2015-05-21, 07:31:04,VALID,919.204,VALID,0,VALID,99.0587,VALID,161.484,VALID,21.2437,VALID,133,VALID,1.27148,
2015-05-21, 07:32:04,VALID,919.218,VALID,0,VALID,99.0892,VALID,162.881,VALID,21.2031,VALID,134,VALID,1.50664,
2015-05-21, 07:33:04,VALID,919.218,VALID,0,VALID,99.0892,VALID,163.203,VALID,21.2031,VALID,144,VALID,1.70195,
2015-05-21, 07:34:04,VALID,919.262,VALID,0,VALID,99.0587,VALID,167.071,VALID,21.2226,VALID,153,VALID,0.969141,
2015-05-21, 07:35:04,VALID,919.249,VALID,0,VALID,99.0129,VALID,172.765,VALID,21.2811,VALID,171,VALID,1.0082,
2015-05-21, 07:36:04,VALID,919.299,VALID,0,VALID,99.0282,VALID,178.782,VALID,21.2811,VALID,168,VALID,1.09805,
2015-05-21, 07:37:04,VALID,919.31,VALID,0,VALID,99.0434,VALID,184.369,VALID,21.2616,VALID,174,VALID,1.35156,
2015-05-21, 07:38:04,VALID,919.325,VALID,0,VALID,99.0129,VALID,188.774,VALID,21.3006,VALID,155,VALID,0.00585938,
2015-05-21, 07:39:04,VALID,919.331,VALID,0,VALID,98.9977,VALID,190.923,VALID,21.3201,VALID,153,VALID,0,
2015-05-21, 07:40:04,VALID,919.345,VALID,0,VALID,99.0053,VALID,192.535,VALID,21.3396,VALID,159,VALID,0.0015625,
2015-05-21, 07:41:04,VALID,919.349,VALID,0,VALID,98.9824,VALID,194.898,VALID,21.3591,VALID,165,VALID,0.570313,
2015-05-21, 07:42:04,VALID,919.355,VALID,0,VALID,98.9672,VALID,198.766,VALID,21.3981,VALID,178,VALID,0.929688,
2015-05-21, 07:43:04,VALID,919.342,VALID,0,VALID,98.9519,VALID,201.774,VALID,21.416,VALID,162,VALID,1.52773,
2015-05-21, 07:44:04,VALID,919.35,VALID,0,VALID,98.891,VALID,204.461,VALID,21.455,VALID,149,VALID,1.30117,
2015-05-21, 07:45:04,VALID,919.357,VALID,0,VALID,98.8605,VALID,207.576,VALID,21.455,VALID,164,VALID,1.00117,
2015-05-21, 07:46:04,VALID,919.373,VALID,0,VALID,98.769,VALID,211.981,VALID,21.5347,VALID,180,VALID,1.44844,
2015-05-21, 07:47:04,VALID,919.38,VALID,0,VALID,98.7156,VALID,215.42,VALID,21.5542,VALID,162,VALID,0.886719,
2015-05-21, 07:48:04,VALID,919.406,VALID,0,VALID,98.6318,VALID,218.965,VALID,21.5542,VALID,166,VALID,2.15078,
2015-05-21, 07:49:04,VALID,919.424,VALID,0,VALID,98.4793,VALID,219.61,VALID,21.5347,VALID,165,VALID,1.74531,
2015-05-21, 07:50:04,VALID,919.423,VALID,0,VALID,98.2735,VALID,219.717,VALID,21.5737,VALID,184,VALID,1.2043,
2015-05-21, 07:51:04,VALID,919.423,VALID,0,VALID,98.1515,VALID,220.469,VALID,21.6306,VALID,171,VALID,1.49492,
2015-05-21, 07:52:04,VALID,919.456,VALID,0,VALID,97.8389,VALID,220.362,VALID,21.6323,VALID,174,VALID,1.83086,
2015-05-21, 07:53:04,VALID,919.464,VALID,0,VALID,97.595,VALID,220.039,VALID,21.6891,VALID,177,VALID,1.16445,
2015-05-21, 07:54:04,VALID,919.478,VALID,0,VALID,97.3358,VALID,220.792,VALID,21.7282,VALID,159,VALID,0.716797,
2015-05-21, 07:55:04,VALID,919.493,VALID,0,VALID,97.0842,VALID,220.362,VALID,21.7688,VALID,168,VALID,0,
2015-05-21, 07:56:04,VALID,919.524,VALID,0,VALID,96.7869,VALID,222.081,VALID,21.7867,VALID,163,VALID,0,
2015-05-21, 07:57:04,VALID,919.582,VALID,0,VALID,96.703,VALID,224.337,VALID,21.8452,VALID,169,VALID,0,
2015-05-21, 07:58:04,VALID,919.594,VALID,0,VALID,96.642,VALID,228.205,VALID,21.9038,VALID,163,VALID,0,
2015-05-21, 07:59:04,VALID,919.611,VALID,0,VALID,96.5582,VALID,234.437,VALID,21.9623,VALID,165,VALID,0,
2015-05-21, 08:00:04,VALID,919.648,VALID,0,VALID,96.2304,VALID,237.445,VALID,21.9835,VALID,170,VALID,0,
2015-05-21, 08:01:04,VALID,919.63,VALID,0,VALID,96.2761,VALID,242.495,VALID,22.042,VALID,158,VALID,0,
2015-05-21, 08:02:04,VALID,919.647,VALID,0,VALID,96.2075,VALID,245.396,VALID,22.1396,VALID,179,VALID,0,
2015-05-21, 08:03:04,VALID,919.651,VALID,0,VALID,96.0245,VALID,249.908,VALID,22.2176,VALID,171,VALID,0,
2015-05-21, 08:04:04,VALID,919.668,VALID,0,VALID,95.4833,VALID,256.247,VALID,22.2176,VALID,166,VALID,1.45039,
2015-05-21, 08:05:04,VALID,919.647,VALID,0,VALID,94.5075,VALID,263.446,VALID,22.1786,VALID,211,VALID,1.72734,
2015-05-21, 08:06:04,VALID,919.626,VALID,0,VALID,95.0183,VALID,273.008,VALID,22.2371,VALID,168,VALID,1.0043,
2015-05-21, 08:07:04,VALID,919.677,VALID,0,VALID,95.4452,VALID,279.669,VALID,22.3542,VALID,168,VALID,0.307813,
2015-05-21, 08:08:04,VALID,919.672,VALID,0,VALID,95.8263,VALID,281.926,VALID,22.4891,VALID,179,VALID,0,
2015-05-21, 08:09:04,VALID,919.671,VALID,0,VALID,95.6662,VALID,280.636,VALID,22.6274,VALID,171,VALID,0,
2015-05-21, 08:10:04,VALID,919.706,VALID,0,VALID,94.6066,VALID,279.562,VALID,22.5867,VALID,158,VALID,0,
2015-05-21, 08:11:04,VALID,919.72,VALID,0,VALID,94.2254,VALID,279.347,VALID,22.6452,VALID,147,VALID,0,
2015-05-21, 08:12:04,VALID,919.72,VALID,0,VALID,94.538,VALID,283.537,VALID,22.7233,VALID,189,VALID,0,
2015-05-21, 08:13:04,VALID,919.753,VALID,0,VALID,94.3245,VALID,284.827,VALID,22.8599,VALID,194,VALID,0,
2015-05-21, 08:14:04,VALID,919.747,VALID,0,VALID,94.5609,VALID,283.322,VALID,22.977,VALID,174,VALID,0,
2015-05-21, 08:15:04,VALID,919.758,VALID,0,VALID,93.1734,VALID,286.868,VALID,23.016,VALID,141,VALID,0,
2015-05-21, 08:16:04,VALID,919.775,VALID,0,VALID,91.7173,VALID,290.413,VALID,23.0746,VALID,170,VALID,0,
2015-05-21, 08:17:04,VALID,919.791,VALID,0,VALID,89.8877,VALID,295.248,VALID,23.0941,VALID,163,VALID,0,
2015-05-21, 08:18:04,VALID,919.797,VALID,0,VALID,89.8115,VALID,301.802,VALID,23.0941,VALID,154,VALID,0,
2015-05-21, 08:19:04,VALID,919.81,VALID,0,VALID,89.3464,VALID,307.819,VALID,23.016,VALID,164,VALID,0.0257812,
2015-05-21, 08:20:04,VALID,919.861,VALID,0,VALID,91.016,VALID,310.183,VALID,23.0746,VALID,159,VALID,0,
2015-05-21, 08:21:04,VALID,919.839,VALID,0,VALID,93.0667,VALID,314.695,VALID,23.1704,VALID,168,VALID,0,
2015-05-21, 08:22:04,VALID,919.868,VALID,0,VALID,91.5267,VALID,318.133,VALID,23.2485,VALID,161,VALID,0,
2015-05-21, 08:23:04,VALID,919.843,VALID,0,VALID,91.2752,VALID,319.423,VALID,23.3461,VALID,141,VALID,0,
2015-05-21, 08:24:04,VALID,919.867,VALID,0,VALID,88.4011,VALID,319.315,VALID,23.3265,VALID,167,VALID,0,
2015-05-21, 08:25:04,VALID,919.903,VALID,0,VALID,90.0478,VALID,326.406,VALID,23.3656,VALID,186,VALID,0,
2015-05-21, 08:26:04,VALID,919.902,VALID,0,VALID,88.8967,VALID,330.489,VALID,23.4437,VALID,172,VALID,0,
2015-05-21, 08:27:04,VALID,919.875,VALID,0,VALID,88.9729,VALID,332.208,VALID,23.4632,VALID,139,VALID,0,
2015-05-21, 08:28:04,VALID,919.92,VALID,0,VALID,89.5599,VALID,334.249,VALID,23.6602,VALID,162,VALID,0,
2015-05-21, 08:29:04,VALID,919.889,VALID,0,VALID,87.7989,VALID,335.754,VALID,23.6779,VALID,132,VALID,0.00703125,
2015-05-21, 08:30:04,VALID,919.91,VALID,0,VALID,87.5016,VALID,337.15,VALID,23.6974,VALID,126,VALID,0,
2015-05-21, 08:31:04,VALID,919.895,VALID,0,VALID,86.9374,VALID,339.621,VALID,23.6388,VALID,127,VALID,0,
2015-05-21, 08:32:04,VALID,919.874,VALID,0,VALID,88.0047,VALID,341.985,VALID,23.6779,VALID,144,VALID,0,
2015-05-21, 08:33:04,VALID,919.826,VALID,0,VALID,87.6312,VALID,343.274,VALID,23.7169,VALID,102,VALID,0,
2015-05-21, 08:34:04,VALID,919.842,VALID,0,VALID,86.2437,VALID,343.274,VALID,23.7364,VALID,131,VALID,0,
2015-05-21, 08:35:04,VALID,919.85,VALID,0,VALID,86.2666,VALID,342.845,VALID,23.7169,VALID,139,VALID,0,
2015-05-21, 08:36:04,VALID,919.869,VALID,0,VALID,86.9069,VALID,346.498,VALID,23.6956,VALID,149,VALID,0,
2015-05-21, 08:37:04,VALID,919.857,VALID,0,VALID,87.4939,VALID,348.647,VALID,23.7755,VALID,111,VALID,0,
2015-05-21, 08:38:04,VALID,919.909,VALID,0,VALID,86.9603,VALID,350.903,VALID,23.8536,VALID,126,VALID,0,
2015-05-21, 08:39:04,VALID,919.909,VALID,0,VALID,87.5473,VALID,350.688,VALID,24.0079,VALID,105,VALID,0,
2015-05-21, 08:40:04,VALID,919.911,VALID,0,VALID,85.9845,VALID,346.82,VALID,24.1641,VALID,92,VALID,0,
2015-05-21, 08:41:04,VALID,919.939,VALID,0,VALID,85.2679,VALID,351.87,VALID,24.1836,VALID,116,VALID,0,
2015-05-21, 08:42:04,VALID,919.94,VALID,0,VALID,83.7127,VALID,356.812,VALID,24.125,VALID,111,VALID,0,
2015-05-21, 08:43:04,VALID,919.918,VALID,0,VALID,85.1688,VALID,362.614,VALID,24.0506,VALID,116,VALID,0,
2015-05-21, 08:44:04,VALID,919.92,VALID,0,VALID,85.3823,VALID,365.085,VALID,24.0896,VALID,85,VALID,0,
2015-05-21, 08:45:04,VALID,919.925,VALID,0,VALID,86.3962,VALID,365.73,VALID,24.1287,VALID,80,VALID,0,
2015-05-21, 08:46:04,VALID,919.94,VALID,0,VALID,87.3872,VALID,366.374,VALID,24.244,VALID,80,VALID,0,
2015-05-21, 08:47:04,VALID,919.929,VALID,0,VALID,86.0379,VALID,366.052,VALID,24.4392,VALID,63,VALID,0.0949219,
2015-05-21, 08:48:04,VALID,919.942,VALID,0,VALID,84.6504,VALID,369.168,VALID,24.5368,VALID,47,VALID,0,
2015-05-21, 08:49:04,VALID,919.934,VALID,0,VALID,83.7432,VALID,373.68,VALID,24.654,VALID,59,VALID,0,
2015-05-21, 08:50:04,VALID,919.92,VALID,0,VALID,83.5145,VALID,376.044,VALID,24.654,VALID,81,VALID,0,
2015-05-21, 08:51:04,VALID,919.924,VALID,0,VALID,84.7419,VALID,377.763,VALID,24.6345,VALID,61,VALID,0,
2015-05-21, 08:52:04,VALID,919.906,VALID,0,VALID,83.9262,VALID,382.598,VALID,24.7321,VALID,47,VALID,0,
2015-05-21, 08:53:04,VALID,919.891,VALID,0,VALID,84.1854,VALID,386.788,VALID,24.9274,VALID,47,VALID,0,
2015-05-21, 08:54:04,VALID,919.91,VALID,0,VALID,81.8526,VALID,391.301,VALID,25.1422,VALID,47,VALID,0,
2015-05-21, 08:55:04,VALID,919.894,VALID,0,VALID,81.5858,VALID,401.937,VALID,25.357,VALID,47,VALID,0,
2015-05-21, 08:56:04,VALID,919.905,VALID,0,VALID,80.6176,VALID,405.053,VALID,25.5718,VALID,47,VALID,0,
2015-05-21, 08:57:04,VALID,919.929,VALID,0,VALID,79.3826,VALID,409.995,VALID,25.728,VALID,349,VALID,0,
2015-05-21, 08:58:04,VALID,919.94,VALID,0,VALID,78.445,VALID,411.715,VALID,25.8843,VALID,360,VALID,0,
2015-05-21, 08:59:04,VALID,919.977,VALID,0,VALID,75.2736,VALID,417.087,VALID,25.9409,VALID,150,VALID,0,
2015-05-21, 09:00:04,VALID,919.979,VALID,0,VALID,73.9319,VALID,422.244,VALID,25.98,VALID,185,VALID,0,
2015-05-21, 09:01:04,VALID,919.984,VALID,0,VALID,75.388,VALID,428.26,VALID,25.9019,VALID,196,VALID,0,
2015-05-21, 09:02:04,VALID,919.963,VALID,0,VALID,75.1593,VALID,432.021,VALID,25.98,VALID,196,VALID,0,
2015-05-21, 09:03:04,VALID,919.959,VALID,0,VALID,74.4198,VALID,437.715,VALID,26.019,VALID,196,VALID,0,
2015-05-21, 09:04:04,VALID,919.929,VALID,0,VALID,75.5328,VALID,444.162,VALID,26.1167,VALID,196,VALID,0,
2015-05-21, 09:05:04,VALID,919.932,VALID,0,VALID,74.8543,VALID,449.641,VALID,26.2339,VALID,155,VALID,0,
2015-05-21, 09:06:04,VALID,919.937,VALID,0,VALID,74.0081,VALID,459.311,VALID,26.1558,VALID,155,VALID,0,
2015-05-21, 09:07:04,VALID,919.934,VALID,0,VALID,73.9014,VALID,464.79,VALID,26.1362,VALID,155,VALID,0,
2015-05-21, 09:08:04,VALID,919.949,VALID,0,VALID,73.0018,VALID,461.03,VALID,26.2164,VALID,155,VALID,0,
2015-05-21, 09:09:04,VALID,919.942,VALID,0,VALID,73.7489,VALID,458.451,VALID,26.2925,VALID,154,VALID,0,
2015-05-21, 09:10:04,VALID,919.925,VALID,0,VALID,73.5126,VALID,460.385,VALID,26.4488,VALID,154,VALID,0,
2015-05-21, 09:11:04,VALID,919.94,VALID,0,VALID,73.3068,VALID,464.038,VALID,26.4663,VALID,222,VALID,0,
2015-05-21, 09:12:04,VALID,919.926,VALID,0,VALID,73.9853,VALID,466.402,VALID,26.5464,VALID,221,VALID,0,
2015-05-21, 09:13:04,VALID,919.922,VALID,0,VALID,74.1301,VALID,469.196,VALID,26.4292,VALID,221,VALID,0,
2015-05-21, 09:14:04,VALID,919.902,VALID,0,VALID,75.5557,VALID,474.353,VALID,26.3336,VALID,221,VALID,0,
2015-05-21, 09:15:04,VALID,919.906,VALID,0,VALID,75.7234,VALID,480.047,VALID,26.1362,VALID,222,VALID,0,
2015-05-21, 09:16:04,VALID,919.876,VALID,0,VALID,78.8261,VALID,485.204,VALID,26.0386,VALID,336,VALID,0,
2015-05-21, 09:17:04,VALID,919.884,VALID,0,VALID,75.6548,VALID,496.163,VALID,25.9214,VALID,322,VALID,0,
2015-05-21, 09:18:04,VALID,919.898,VALID,0,VALID,76.5086,VALID,502.287,VALID,25.7261,VALID,312,VALID,0,
2015-05-21, 09:19:04,VALID,919.915,VALID,0,VALID,77.4463,VALID,502.825,VALID,25.5113,VALID,295,VALID,0,
2015-05-21, 09:20:04,VALID,919.902,VALID,0,VALID,78.5974,VALID,504.651,VALID,25.2965,VALID,302,VALID,0,
2015-05-21, 09:21:04,VALID,919.922,VALID,0,VALID,79.2073,VALID,502.825,VALID,25.2769,VALID,300,VALID,0,
2015-05-21, 09:22:04,VALID,919.922,VALID,0,VALID,79.6647,VALID,499.601,VALID,25.2769,VALID,309,VALID,0,
2015-05-21, 09:23:04,VALID,919.949,VALID,0,VALID,79.9391,VALID,502.825,VALID,25.1969,VALID,286,VALID,0,
2015-05-21, 09:24:04,VALID,919.938,VALID,0,VALID,79.3826,VALID,509.486,VALID,25.1402,VALID,259,VALID,0,
2015-05-21, 09:25:04,VALID,919.935,VALID,0,VALID,79.779,VALID,519.8,VALID,25.1188,VALID,263,VALID,0,
2015-05-21, 09:26:04,VALID,919.953,VALID,0,VALID,80.5643,VALID,527.643,VALID,25.236,VALID,344,VALID,0,
2015-05-21, 09:27:04,VALID,919.971,VALID,0,VALID,78.91,VALID,541.181,VALID,25.4722,VALID,337,VALID,0,
2015-05-21, 09:28:04,VALID,919.948,VALID,0,VALID,78.2315,VALID,548.917,VALID,25.6851,VALID,342,VALID,0,
2015-05-21, 09:29:04,VALID,919.959,VALID,0,VALID,76.7525,VALID,553.214,VALID,25.7651,VALID,267,VALID,0,
2015-05-21, 09:30:04,VALID,919.972,VALID,0,VALID,76.3104,VALID,551.173,VALID,25.5874,VALID,263,VALID,0,
2015-05-21, 09:31:04,VALID,919.944,VALID,0,VALID,76.905,VALID,548.809,VALID,25.4898,VALID,265,VALID,0,